Time,TemperatureF,DewpointF,PressureIn,WindDirection,WindDirectionDegrees,WindSpeedMPH,WindSpeedGustMPH,Humidity,HourlyPrecipIn,Conditions,Clouds,dailyrainin,SoftwareType,DateUTC
2013-06-13 00:15:00,77.2,75.7,29.84,SSW,202,0.0,-999.0,95,-99.99,,,0.00,Acu-Link.com,2013-06-13 04:15:00,
2013-06-13 00:30:00,77.2,76.0,29.84,SSW,202,0.0,-999.0,96,-99.99,,,0.00,Acu-Link.com,2013-06-13 04:30:00,
2013-06-13 00:45:00,76.6,76.0,29.83,SSW,202,0.0,-999.0,98,-99.99,,,0.00,Acu-Link.com,2013-06-13 04:45:00,
2013-06-13 01:00:00,76.8,75.9,29.83,South,180,0.0,-999.0,97,-99.99,,,0.00,Acu-Link.com,2013-06-13 05:00:00,
2013-06-13 01:15:00,76.6,75.4,29.83,SSW,202,0.0,-999.0,96,-99.99,,,0.00,Acu-Link.com,2013-06-13 05:15:00,
2013-06-13 01:30:00,76.6,75.4,29.83,West,270,0.0,-999.0,96,-99.99,,,0.00,Acu-Link.com,2013-06-13 05:30:00,
2013-06-13 01:46:00,76.5,75.3,29.82,ESE,112,0.0,-999.0,96,-99.99,,,0.00,Acu-Link.com,2013-06-13 05:46:00,
2013-06-13 02:01:00,76.3,75.1,29.81,South,180,0.0,-999.0,96,-99.99,,,0.00,Acu-Link.com,2013-06-13 06:01:00,
2013-06-13 02:16:00,76.1,74.9,29.82,SSW,202,0.0,-999.0,96,-99.99,,,0.00,Acu-Link.com,2013-06-13 06:16:00,
2013-06-13 02:32:00,76.1,75.2,29.81,East,90,0.0,-999.0,97,-99.99,,,0.00,Acu-Link.com,2013-06-13 06:32:00,
2013-06-13 02:47:00,75.9,75.0,29.81,SW,225,0.0,-999.0,97,-99.99,,,0.00,Acu-Link.com,2013-06-13 06:47:00,
2013-06-13 03:02:00,75.7,74.8,29.81,West,270,0.0,-999.0,97,-99.99,,,0.00,Acu-Link.com,2013-06-13 07:02:00,
2013-06-13 03:18:00,75.7,74.8,29.81,SSW,202,0.0,-999.0,97,-99.99,,,0.00,Acu-Link.com,2013-06-13 07:18:00,
2013-06-13 03:33:00,75.9,74.7,29.80,West,270,0.0,-999.0,96,-99.99,,,0.00,Acu-Link.com,2013-06-13 07:33:00,
2013-06-13 03:48:00,75.6,74.4,29.80,SSW,202,0.0,-999.0,96,-99.99,,,0.00,Acu-Link.com,2013-06-13 07:48:00,
2013-06-13 04:03:00,75.6,74.4,29.80,SSW,202,0.0,-999.0,96,-99.99,,,0.00,Acu-Link.com,2013-06-13 08:03:00,
2013-06-13 04:19:00,75.6,74.4,29.80,SE,135,0.0,-999.0,96,-99.99,,,0.00,Acu-Link.com,2013-06-13 08:19:00,
2013-06-13 04:34:00,75.4,74.2,29.80,SW,225,0.0,-999.0,96,-99.99,,,0.00,Acu-Link.com,2013-06-13 08:34:00,
2013-06-13 04:49:00,75.2,74.0,29.80,SSE,157,0.0,-999.0,96,-99.99,,,0.00,Acu-Link.com,2013-06-13 08:49:00,
2013-06-13 05:04:00,75.2,73.7,29.79,West,270,0.0,-999.0,95,-99.99,,,0.00,Acu-Link.com,2013-06-13 09:04:00,
2013-06-13 05:19:00,74.8,73.3,29.78,SSE,157,0.0,-999.0,95,-99.99,,,0.00,Acu-Link.com,2013-06-13 09:19:00,
2013-06-13 05:34:00,74.3,73.1,29.78,West,270,0.0,-999.0,96,-99.99,,,0.00,Acu-Link.com,2013-06-13 09:34:00,
2013-06-13 05:50:00,73.9,73.0,29.77,SSW,202,0.0,-999.0,97,-99.99,,,0.00,Acu-Link.com,2013-06-13 09:50:00,
2013-06-13 06:05:00,73.8,72.6,29.77,South,180,0.0,-999.0,96,-99.99,,,0.00,Acu-Link.com,2013-06-13 10:05:00,
2013-06-13 06:21:00,73.6,72.7,29.78,South,180,0.0,-999.0,97,-99.99,,,0.00,Acu-Link.com,2013-06-13 10:21:00,
2013-06-13 06:36:00,73.6,72.4,29.78,SSW,202,0.0,-999.0,96,-99.99,,,0.00,Acu-Link.com,2013-06-13 10:36:00,
2013-06-13 06:51:00,73.6,72.4,29.78,SW,225,0.0,-999.0,96,-99.99,,,0.00,Acu-Link.com,2013-06-13 10:51:00,
2013-06-13 07:07:00,73.8,72.6,29.77,WSW,247,0.0,-999.0,96,-99.99,,,0.00,Acu-Link.com,2013-06-13 11:07:00,
2013-06-13 07:22:00,74.1,72.9,29.77,ENE,67,0.0,-999.0,96,-99.99,,,0.00,Acu-Link.com,2013-06-13 11:22:00,
2013-06-13 07:37:00,74.3,73.1,29.77,SSW,202,0.0,-999.0,96,-99.99,,,0.00,Acu-Link.com,2013-06-13 11:37:00,
2013-06-13 07:52:00,75.0,73.5,29.76,West,270,0.0,-999.0,95,-99.99,,,0.00,Acu-Link.com,2013-06-13 11:52:00,
2013-06-13 08:08:00,76.5,74.0,29.77,ESE,112,0.0,-999.0,92,-99.99,,,0.00,Acu-Link.com,2013-06-13 12:08:00,
2013-06-13 08:23:00,81.1,75.1,29.77,SSE,157,0.0,-999.0,82,-99.99,,,0.00,Acu-Link.com,2013-06-13 12:23:00,
2013-06-13 08:38:00,82.8,75.2,29.76,WNW,292,0.0,-999.0,78,-99.99,,,0.00,Acu-Link.com,2013-06-13 12:38:00,
2013-06-13 08:54:00,82.6,74.2,29.76,ENE,67,0.0,-999.0,76,-99.99,,,0.00,Acu-Link.com,2013-06-13 12:54:00,
2013-06-13 09:09:00,82.8,75.2,29.75,SSE,157,0.0,-999.0,78,-99.99,,,0.00,Acu-Link.com,2013-06-13 13:09:00,
2013-06-13 09:24:00,82.8,74.8,29.75,South,180,0.0,-999.0,77,-99.99,,,0.00,Acu-Link.com,2013-06-13 13:24:00,
2013-06-13 09:39:00,82.4,74.8,29.74,NW,315,0.0,-999.0,78,-99.99,,,0.00,Acu-Link.com,2013-06-13 13:39:00,
2013-06-13 09:55:00,82.8,75.2,29.74,ESE,112,0.0,-999.0,78,-99.99,,,0.00,Acu-Link.com,2013-06-13 13:55:00,
2013-06-13 10:10:00,83.1,73.5,29.73,West,270,2.2,-999.0,73,-99.99,,,0.00,Acu-Link.com,2013-06-13 14:10:00,
2013-06-13 10:25:00,83.5,74.7,29.73,SW,225,1.1,-999.0,75,-99.99,,,0.00,Acu-Link.com,2013-06-13 14:25:00,
2013-06-13 10:41:00,84.2,75.4,29.73,SE,135,0.0,-999.0,75,-99.99,,,0.00,Acu-Link.com,2013-06-13 14:41:00,
2013-06-13 10:56:00,84.7,74.2,29.73,SSE,157,0.0,-999.0,71,-99.99,,,0.00,Acu-Link.com,2013-06-13 14:56:00,
2013-06-13 11:12:00,85.3,74.4,29.72,NE,45,2.7,-999.0,70,-99.99,,,0.00,Acu-Link.com,2013-06-13 15:12:00,
2013-06-13 11:27:00,85.5,75.0,29.72,East,90,0.0,-999.0,71,-99.99,,,0.00,Acu-Link.com,2013-06-13 15:27:00,
2013-06-13 11:42:00,86.4,74.6,29.71,NNE,22,2.7,-999.0,68,-99.99,,,0.00,Acu-Link.com,2013-06-13 15:42:00,
2013-06-13 11:58:00,86.5,75.1,29.71,NNW,337,2.2,-999.0,69,-99.99,,,0.00,Acu-Link.com,2013-06-13 15:58:00,
2013-06-13 12:13:00,86.9,73.7,29.70,NW,315,0.0,-999.0,65,-99.99,,,0.00,Acu-Link.com,2013-06-13 16:13:00,
2013-06-13 12:28:00,86.5,76.0,29.69,ESE,112,0.0,-999.0,71,-99.99,,,0.00,Acu-Link.com,2013-06-13 16:28:00,
2013-06-13 12:44:00,88.2,75.4,29.69,SSW,202,0.0,-999.0,66,-99.99,,,0.00,Acu-Link.com,2013-06-13 16:44:00,
2013-06-13 12:59:00,88.9,75.1,29.69,West,270,0.0,-999.0,64,-99.99,,,0.00,Acu-Link.com,2013-06-13 16:59:00,
2013-06-13 13:14:00,88.9,75.1,29.68,SSW,202,1.7,-999.0,64,-99.99,,,0.00,Acu-Link.com,2013-06-13 17:14:00,
2013-06-13 13:29:00,89.1,75.8,29.67,WNW,292,3.2,-999.0,65,-99.99,,,0.00,Acu-Link.com,2013-06-13 17:29:00,
2013-06-13 13:45:00,89.6,74.3,29.66,NW,315,2.2,-999.0,61,-99.99,,,0.00,Acu-Link.com,2013-06-13 17:45:00,
2013-06-13 14:00:00,90.0,75.2,29.66,NNW,337,1.7,-999.0,62,-99.99,,,0.00,Acu-Link.com,2013-06-13 18:00:00,
2013-06-13 14:15:00,90.0,77.1,29.66,East,90,2.2,-999.0,66,-99.99,,,0.00,Acu-Link.com,2013-06-13 18:15:00,
2013-06-13 14:30:00,90.5,75.7,29.66,ESE,112,0.0,-999.0,62,-99.99,,,0.00,Acu-Link.com,2013-06-13 18:30:00,
2013-06-13 14:46:00,91.8,74.9,29.65,SSE,157,4.2,-999.0,58,-99.99,,,0.00,Acu-Link.com,2013-06-13 18:46:00,
2013-06-13 15:01:00,92.5,77.1,29.65,South,180,0.0,-999.0,61,-99.99,,,0.00,Acu-Link.com,2013-06-13 19:01:00,
2013-06-13 15:16:00,91.8,75.9,29.65,SE,135,1.7,-999.0,60,-99.99,,,0.00,Acu-Link.com,2013-06-13 19:16:00,
2013-06-13 15:31:00,91.8,73.8,29.64,WSW,247,4.2,-999.0,56,-99.99,,,0.00,Acu-Link.com,2013-06-13 19:31:00,
2013-06-13 15:47:00,91.0,75.6,29.64,SE,135,2.2,-999.0,61,-99.99,,,0.00,Acu-Link.com,2013-06-13 19:47:00,
2013-06-13 16:02:00,89.4,74.6,29.63,WNW,292,2.2,-999.0,62,-99.99,,,0.00,Acu-Link.com,2013-06-13 20:02:00,
2013-06-13 16:17:00,90.9,73.5,29.63,NNE,22,2.7,-999.0,57,-99.99,,,0.00,Acu-Link.com,2013-06-13 20:17:00,
2013-06-13 16:33:00,89.1,74.3,29.61,SSW,202,0.0,-999.0,62,-99.99,,,0.00,Acu-Link.com,2013-06-13 20:33:00,
2013-06-13 16:48:00,87.4,74.2,29.62,ESE,112,0.0,-999.0,65,-99.99,,,0.00,Acu-Link.com,2013-06-13 20:48:00,
2013-06-13 17:03:00,86.4,74.6,29.61,ESE,112,2.2,-999.0,68,-99.99,,,0.00,Acu-Link.com,2013-06-13 21:03:00,
2013-06-13 17:19:00,86.5,75.5,29.61,South,180,0.0,-999.0,70,-99.99,,,0.00,Acu-Link.com,2013-06-13 21:19:00,
2013-06-13 17:34:00,86.2,75.7,29.61,West,270,0.0,-999.0,71,-99.99,,,0.00,Acu-Link.com,2013-06-13 21:34:00,
2013-06-13 17:49:00,85.6,74.7,29.61,ESE,112,0.0,-999.0,70,-99.99,,,0.00,Acu-Link.com,2013-06-13 21:49:00,
2013-06-13 18:05:00,84.0,75.2,29.60,SW,225,0.0,-999.0,75,-99.99,,,0.00,Acu-Link.com,2013-06-13 22:05:00,
2013-06-13 18:20:00,83.3,74.9,29.60,SSW,202,0.0,-999.0,76,-99.99,,,0.00,Acu-Link.com,2013-06-13 22:20:00,
2013-06-13 18:35:00,82.6,72.2,29.67,West,270,6.3,-999.0,71,-99.99,,,0.00,Acu-Link.com,2013-06-13 22:35:00,
2013-06-13 18:50:00,72.9,70.4,29.67,West,270,2.2,-999.0,92,-99.99,,,0.10,Acu-Link.com,2013-06-13 22:50:00,
2013-06-13 19:06:00,72.0,71.1,29.66,ESE,112,0.0,-999.0,97,-99.99,,,0.25,Acu-Link.com,2013-06-13 23:06:00,
2013-06-13 19:21:00,70.5,69.9,29.70,SE,135,0.0,-999.0,98,-99.99,,,0.51,Acu-Link.com,2013-06-13 23:21:00,
2013-06-13 19:36:00,70.3,70.0,29.68,ESE,112,0.0,-999.0,99,-99.99,,,1.22,Acu-Link.com,2013-06-13 23:36:00,
2013-06-13 19:51:00,70.3,70.0,29.66,SSE,157,0.0,-999.0,99,-99.99,,,1.22,Acu-Link.com,2013-06-13 23:51:00,
2013-06-13 20:07:00,70.3,70.0,29.66,South,180,0.0,-999.0,99,-99.99,,,1.22,Acu-Link.com,2013-06-14 00:07:00,
2013-06-13 20:22:00,70.3,70.0,29.68,SSW,202,0.0,-999.0,99,-99.99,,,1.22,Acu-Link.com,2013-06-14 00:22:00,
2013-06-13 20:37:00,70.3,70.0,29.67,East,90,0.0,-999.0,99,-99.99,,,1.22,Acu-Link.com,2013-06-14 00:37:00,
2013-06-13 20:53:00,70.7,70.4,29.66,East,90,0.0,-999.0,99,-99.99,,,1.22,Acu-Link.com,2013-06-14 00:53:00,
2013-06-13 21:08:00,70.7,70.4,29.67,North,0,0.0,-999.0,99,-99.99,,,1.22,Acu-Link.com,2013-06-14 01:08:00,
2013-06-13 21:23:00,70.9,70.6,29.68,SW,225,0.0,-999.0,99,-99.99,,,1.22,Acu-Link.com,2013-06-14 01:23:00,
2013-06-13 21:38:00,70.7,70.4,29.67,SW,225,0.0,-999.0,99,-99.99,,,1.22,Acu-Link.com,2013-06-14 01:38:00,
2013-06-13 21:54:00,70.9,70.6,29.68,East,90,0.0,-999.0,99,-99.99,,,1.22,Acu-Link.com,2013-06-14 01:54:00,
2013-06-13 22:09:00,70.9,70.6,29.67,SSW,202,0.0,-999.0,99,-99.99,,,1.22,Acu-Link.com,2013-06-14 02:09:00,
2013-06-13 22:24:00,70.9,70.6,29.69,SSE,157,0.0,-999.0,99,-99.99,,,1.22,Acu-Link.com,2013-06-14 02:24:00,
2013-06-13 22:39:00,70.9,70.6,29.69,ESE,112,0.0,-999.0,99,-99.99,,,1.22,Acu-Link.com,2013-06-14 02:39:00,
2013-06-13 22:55:00,70.9,70.6,29.70,NNW,337,0.0,-999.0,99,-99.99,,,1.22,Acu-Link.com,2013-06-14 02:55:00,
2013-06-13 23:10:00,70.9,70.6,29.70,West,270,0.0,-999.0,99,-99.99,,,1.22,Acu-Link.com,2013-06-14 03:10:00,
2013-06-13 23:25:00,70.7,70.4,29.71,West,270,0.0,-999.0,99,-99.99,,,1.22,Acu-Link.com,2013-06-14 03:25:00,
2013-06-13 23:41:00,70.5,70.2,29.71,SW,225,0.0,-999.0,99,-99.99,,,1.22,Acu-Link.com,2013-06-14 03:41:00,
2013-06-13 23:56:00,70.2,69.9,29.70,SW,225,0.0,-999.0,99,-99.99,,,1.22,Acu-Link.com,2013-06-14 03:56:00,